• In Russia
  • List of Countries
  • For 7 days
  • Water Temperature
  • Satellite Maps
  • Weather Map
  • Weather Widgets
  • user-avatar
    Login

    Hourly Weather Barra

    Today, 23 January, Wednesday

    Time Temperature Precipitation Wind Pressure Humidity
    00:00 +25°C° 0.3 mm 2 mps 747 mmHg 95%
    01:00 +25°C° 0.3 mm 2 mps 747 mmHg 96%
    02:00 +25°C° 0.4 mm 3 mps 747 mmHg 96%
    03:00 +25°C° 0.4 mm 3 mps 746 mmHg 96%
    04:00 +25°C° 0 mm 3 mps 746 mmHg 96%
    05:00 +25°C° 0.8 mm 3 mps 746 mmHg 96%
    06:00 +25°C° 0.8 mm 3 mps 746 mmHg 95%
    07:00 +25°C° 0.8 mm 3 mps 747 mmHg 95%
    08:00 +26°C° 1 mm 3 mps 747 mmHg 94%
    09:00 +26°C° 1 mm 3 mps 747 mmHg 93%
    10:00 +26°C° 0 mm 4 mps 747 mmHg 93%
    11:00 +27°C° 1.4 mm 4 mps 747 mmHg 91%
    12:00 +28°C° 1.4 mm 4 mps 746 mmHg 88%
    13:00 +29°C° 1.4 mm 4 mps 746 mmHg 86%
    14:00 +29°C° 2.1 mm 4 mps 746 mmHg 86%
    15:00 +29°C° 2.1 mm 3 mps 745 mmHg 86%
    16:00 +29°C° 0 mm 3 mps 745 mmHg 85%
    17:00 +28°C° 1.3 mm 3 mps 745 mmHg 88%
    18:00 +27°C° 1.3 mm 3 mps 745 mmHg 90%
    19:00 +26°C° 1.3 mm 2 mps 746 mmHg 92%
    20:00 +26°C° 0.6 mm 2 mps 746 mmHg 93%
    21:00 +26°C° 0.6 mm 2 mps 746 mmHg 94%
    22:00 +26°C° 0.6 mm 2 mps 747 mmHg 94%
    23:00 +25°C° 0.6 mm 2 mps 746 mmHg 95%

    Tomorrow, 24 January, Thursday

    Time Temperature Precipitation Wind Pressure Humidity
    00:00 +25°C° 0.6 mm 2 mps 746 mmHg 95%
    01:00 +25°C° 0.6 mm 2 mps 746 mmHg 95%
    02:00 +25°C° 1.6 mm 2 mps 746 mmHg 96%
    03:00 +25°C° 1.6 mm 2 mps 745 mmHg 96%
    04:00 +25°C° 1.6 mm 2 mps 745 mmHg 96%
    05:00 +26°C° 1.1 mm 2 mps 745 mmHg 95%
    06:00 +26°C° 1.1 mm 2 mps 746 mmHg 95%
    07:00 +26°C° 1.1 mm 2 mps 746 mmHg 94%
    08:00 +27°C° 0.8 mm 2 mps 746 mmHg 88%
    09:00 +29°C° 0.8 mm 2 mps 746 mmHg 83%
    10:00 +30°C° 0.8 mm 2 mps 746 mmHg 77%
    11:00 +30°C° 1.5 mm 3 mps 746 mmHg 76%
    12:00 +31°C° 1.5 mm 3 mps 745 mmHg 74%
    13:00 +31°C° 1.5 mm 3 mps 745 mmHg 73%
    14:00 +31°C° 0.5 mm 3 mps 745 mmHg 73%
    15:00 +31°C° 0.5 mm 3 mps 744 mmHg 74%
    16:00 +30°C° 0.5 mm 3 mps 744 mmHg 75%
    17:00 +29°C° 0.7 mm 3 mps 744 mmHg 81%
    18:00 +28°C° 0.7 mm 3 mps 745 mmHg 87%
    19:00 +27°C° 0.7 mm 2 mps 745 mmHg 93%
    20:00 +27°C° 1.7 mm 2 mps 746 mmHg 93%
    21:00 +26°C° 1.7 mm 2 mps 746 mmHg 94%
    22:00 +26°C° 1.7 mm 1 mps 747 mmHg 95%
    23:00 +26°C° 1.3 mm 1 mps 746 mmHg 95%

    Day after tomorrow, 25 January, Friday

    Time Temperature Precipitation Wind Pressure Humidity
    00:00 +26°C° 1.3 mm 1 mps 746 mmHg 95%
    01:00 +25°C° 1.3 mm 1 mps 746 mmHg 96%
    02:00 +25°C° 1.3 mm 2 mps 745 mmHg 96%
    03:00 +25°C° 1.3 mm 2 mps 745 mmHg 96%
    04:00 +25°C° 1.3 mm 2 mps 745 mmHg 96%
    05:00 +25°C° 1.3 mm 2 mps 745 mmHg 95%
    06:00 +26°C° 1.3 mm 2 mps 745 mmHg 95%
    07:00 +26°C° 1.3 mm 2 mps 746 mmHg 94%
    08:00 +26°C° 2 mm 2 mps 746 mmHg 94%
    09:00 +26°C° 2 mm 2 mps 746 mmHg 94%
    10:00 +26°C° 2 mm 3 mps 746 mmHg 93%
    11:00 +26°C° 2.6 mm 3 mps 746 mmHg 94%
    12:00 +26°C° 2.6 mm 3 mps 745 mmHg 94%
    13:00 +26°C° 2.6 mm 3 mps 745 mmHg 94%
    14:00 +26°C° 2.3 mm 3 mps 744 mmHg 94%
    15:00 +26°C° 2.3 mm 3 mps 744 mmHg 94%
    16:00 +26°C° 2.3 mm 4 mps 744 mmHg 94%
    17:00 +26°C° 3.3 mm 4 mps 744 mmHg 95%
    18:00 +25°C° 3.3 mm 3 mps 744 mmHg 96%
    19:00 +25°C° 3.3 mm 3 mps 744 mmHg 96%
    20:00 +25°C° 2.4 mm 4 mps 745 mmHg 96%
    21:00 +25°C° 2.4 mm 4 mps 745 mmHg 96%
    22:00 +25°C° 2.4 mm 4 mps 745 mmHg 97%
    23:00 +25°C° 1.5 mm 4 mps 745 mmHg 96%

    26 January, Saturday

    Time Temperature Precipitation Wind Pressure Humidity
    00:00 +25°C° 1.5 mm 4 mps 745 mmHg 96%
    01:00 +25°C° 1.5 mm 4 mps 744 mmHg 96%
    02:00 +25°C° 1.3 mm 5 mps 743 mmHg 96%
    03:00 +26°C° 1.3 mm 6 mps 743 mmHg 96%
    04:00 +26°C° 1.3 mm 7 mps 742 mmHg 95%
    05:00 +26°C° 0.8 mm 7 mps 742 mmHg 95%
    06:00 +26°C° 0.8 mm 8 mps 742 mmHg 94%
    07:00 +26°C° 0.8 mm 8 mps 741 mmHg 93%
    08:00 +26°C° 0.8 mm 10 mps 742 mmHg 92%
    09:00 +26°C° 0.8 mm 11 mps 742 mmHg 90%
    10:00 +27°C° 0.8 mm 13 mps 742 mmHg 89%
    11:00 +27°C° 9.2 mm 12 mps 741 mmHg 91%
    12:00 +27°C° 9.2 mm 11 mps 741 mmHg 94%
    13:00 +27°C° 9.2 mm 10 mps 740 mmHg 96%
    14:00 +27°C° 2.5 mm 8 mps 740 mmHg 93%
    15:00 +28°C° 2.5 mm 7 mps 740 mmHg 91%
    16:00 +28°C° 2.5 mm 5 mps 739 mmHg 89%
    17:00 +28°C° 1.3 mm 5 mps 740 mmHg 90%
    18:00 +27°C° 1.3 mm 5 mps 740 mmHg 92%
    19:00 +26°C° 1.3 mm 4 mps 741 mmHg 94%
    20:00 +26°C° 1.1 mm 4 mps 741 mmHg 94%
    21:00 +26°C° 1.1 mm 4 mps 741 mmHg 94%
    22:00 +26°C° 1.1 mm 3 mps 742 mmHg 94%
    23:00 +26°C° 0.1 mm 3 mps 742 mmHg 94%

    27 January, Sunday

    Time Temperature Precipitation Wind Pressure Humidity
    00:00 +25°C° 0.1 mm 3 mps 741 mmHg 94%
    01:00 +25°C° 0.1 mm 3 mps 741 mmHg 94%
    02:00 +25°C° 0 mm 2 mps 741 mmHg 94%
    03:00 +25°C° 0 mm 2 mps 740 mmHg 94%
    04:00 +25°C° 0 mm 2 mps 740 mmHg 94%
    05:00 +25°C° 0 mm 3 mps 741 mmHg 93%
    06:00 +25°C° 0 mm 3 mps 742 mmHg 92%
    07:00 +26°C° 0 mm 3 mps 742 mmHg 91%
    08:00 +27°C° 0 mm 3 mps 742 mmHg 83%
    09:00 +29°C° 0 mm 4 mps 743 mmHg 75%
    10:00 +30°C° 0 mm 4 mps 743 mmHg 67%
    11:00 +32°C° 0 mm 4 mps 743 mmHg 64%
    12:00 +31°C° 0 mm 3 mps 742 mmHg 62%
    13:00 +33°C° 0 mm 3 mps 742 mmHg 59%
    14:00 +33°C° 0 mm 4 mps 742 mmHg 62%
    15:00 +33°C° 0 mm 4 mps 741 mmHg 64%
    16:00 +32°C° 0 mm 4 mps 741 mmHg 67%
    17:00 +30°C° 0 mm 4 mps 741 mmHg 73%
    18:00 +29°C° 0 mm 4 mps 742 mmHg 78%
    19:00 +28°C° 0 mm 3 mps 742 mmHg 84%
    20:00 +27°C° 0.3 mm 3 mps 743 mmHg 86%
    21:00 +27°C° 0.3 mm 3 mps 744 mmHg 88%
    22:00 +26°C° 0.3 mm 3 mps 744 mmHg 90%
    23:00 +26°C° 0.8 mm 2 mps 744 mmHg 92%

    28 January, Monday

    Time Temperature Precipitation Wind Pressure Humidity
    00:00 +26°C° 0.8 mm 2 mps 744 mmHg 93%
    01:00 +26°C° 0.8 mm 2 mps 743 mmHg 95%
    02:00 +26°C° 1.1 mm 2 mps 743 mmHg 95%
    03:00 +26°C° 1.1 mm 2 mps 743 mmHg 96%
    04:00 +26°C° 1.1 mm 1 mps 743 mmHg 96%
    05:00 +26°C° 0.5 mm 1 mps 743 mmHg 96%
    06:00 +26°C° 0.5 mm 1 mps 744 mmHg 96%
    07:00 +24°C° 0.5 mm 0 mps 744 mmHg 96%
    08:00 +25°C° 0.5 mm 0 mps 744 mmHg 94%
    09:00 +28°C° 0.5 mm 1 mps 745 mmHg 91%
    10:00 +29°C° 0.5 mm 1 mps 745 mmHg 89%
    11:00 +28°C° 2 mm 1 mps 745 mmHg 91%
    12:00 +28°C° 2 mm 1 mps 744 mmHg 93%
    13:00 +27°C° 2 mm 2 mps 744 mmHg 95%
    14:00 +27°C° 2.4 mm 2 mps 744 mmHg 96%
    15:00 +27°C° 2.4 mm 2 mps 743 mmHg 96%
    16:00 +27°C° 2.4 mm 2 mps 743 mmHg 97%
    17:00 +26°C° 1.9 mm 3 mps 744 mmHg 97%
    18:00 +26°C° 1.9 mm 3 mps 744 mmHg 97%
    19:00 +26°C° 1.9 mm 3 mps 745 mmHg 97%
    20:00 +26°C° 0.8 mm 4 mps 745 mmHg 97%
    21:00 +26°C° 0.8 mm 4 mps 745 mmHg 97%
    22:00 +26°C° 0.8 mm 4 mps 745 mmHg 97%
    23:00 +26°C° 2.6 mm 4 mps 745 mmHg 97%
    Show more